• In Hungary
  • List of Countries
  • For 7 days
  • Water Temperature
  • Satellite Maps
  • Weather Map
  • News
  • Weather Widgets
  • user-avatar
    Login

    Hourly Weather Mysliki

    Today, 18 October, Wednesday

    Time Temperature Precipitation Wind Pressure Humidity
    00:00 +12°C° 0 mm 3 mps 749 mmHg 90%
    01:00 +12°C° 0 mm 3 mps 748 mmHg 92%
    02:00 +12°C° 0 mm 3 mps 748 mmHg 92%
    03:00 +12°C° 0 mm 3 mps 748 mmHg 93%
    04:00 +11°C° 0 mm 3 mps 747 mmHg 93%
    05:00 +11°C° 0 mm 3 mps 747 mmHg 94%
    06:00 +11°C° 0 mm 3 mps 747 mmHg 94%
    07:00 +11°C° 0 mm 3 mps 747 mmHg 94%
    08:00 +13°C° 0 mm 3 mps 747 mmHg 86%
    09:00 +14°C° 0 mm 4 mps 747 mmHg 77%
    10:00 +17°C° 0 mm 4 mps 747 mmHg 69%
    11:00 +17°C° 0 mm 4 mps 747 mmHg 65%
    12:00 +18°C° 0 mm 4 mps 747 mmHg 61%
    13:00 +18°C° 0 mm 4 mps 747 mmHg 57%
    14:00 +17°C° 0 mm 3 mps 747 mmHg 62%
    15:00 +16°C° 0 mm 2 mps 747 mmHg 66%
    16:00 +15°C° 0 mm 2 mps 747 mmHg 71%
    17:00 +14°C° 0 mm 2 mps 747 mmHg 75%
    18:00 +13°C° 0 mm 2 mps 747 mmHg 80%
    19:00 +12°C° 0 mm 2 mps 748 mmHg 84%
    20:00 +10°C° 0 mm 2 mps 748 mmHg 86%
    21:00 +11°C° 0 mm 1 mps 748 mmHg 89%
    22:00 +11°C° 0 mm 1 mps 748 mmHg 91%
    23:00 +10°C° 0 mm 1 mps 748 mmHg 92%

    Tomorrow, 19 October, Thursday

    Time Temperature Precipitation Wind Pressure Humidity
    00:00 +10°C° 0 mm 1 mps 748 mmHg 92%
    01:00 +10°C° 0 mm 1 mps 748 mmHg 93%
    02:00 +10°C° 0 mm 1 mps 748 mmHg 94%
    03:00 +9°C° 0 mm 1 mps 748 mmHg 94%
    04:00 +9°C° 0 mm 1 mps 748 mmHg 95%
    05:00 +8°C° 0 mm 2 mps 748 mmHg 95%
    06:00 +8°C° 0 mm 2 mps 748 mmHg 95%
    07:00 +8°C° 0 mm 2 mps 749 mmHg 95%
    08:00 +10°C° 0 mm 2 mps 749 mmHg 90%
    09:00 +12°C° 0 mm 2 mps 749 mmHg 85%
    10:00 +13°C° 0 mm 2 mps 749 mmHg 79%
    11:00 +13°C° 0 mm 3 mps 749 mmHg 77%
    12:00 +13°C° 0 mm 3 mps 749 mmHg 75%
    13:00 +14°C° 0 mm 3 mps 749 mmHg 73%
    14:00 +13°C° 0 mm 3 mps 749 mmHg 76%
    15:00 +12°C° 0 mm 3 mps 749 mmHg 80%
    16:00 +12°C° 0 mm 3 mps 749 mmHg 83%
    17:00 +11°C° 0 mm 3 mps 749 mmHg 85%
    18:00 +10°C° 0 mm 3 mps 750 mmHg 87%
    19:00 +9°C° 0 mm 3 mps 750 mmHg 89%
    20:00 +9°C° 0 mm 3 mps 750 mmHg 88%
    21:00 +8°C° 0 mm 3 mps 750 mmHg 86%
    22:00 +8°C° 0 mm 3 mps 751 mmHg 85%
    23:00 +8°C° 0 mm 3 mps 751 mmHg 84%

    Day after tomorrow, 20 October, Friday

    Time Temperature Precipitation Wind Pressure Humidity
    00:00 +7°C° 0 mm 3 mps 751 mmHg 84%
    01:00 +7°C° 0 mm 3 mps 751 mmHg 83%
    02:00 +7°C° 0 mm 3 mps 751 mmHg 82%
    03:00 +5°C° 0 mm 3 mps 751 mmHg 81%
    04:00 +5°C° 0 mm 3 mps 752 mmHg 80%
    05:00 +5°C° 0 mm 3 mps 752 mmHg 80%
    06:00 +5°C° 0 mm 3 mps 752 mmHg 79%
    07:00 +5°C° 0 mm 3 mps 752 mmHg 79%
    08:00 +6°C° 0 mm 4 mps 753 mmHg 74%
    09:00 +7°C° 0 mm 4 mps 753 mmHg 69%
    10:00 +8°C° 0 mm 4 mps 753 mmHg 64%
    11:00 +10°C° 0 mm 4 mps 753 mmHg 61%
    12:00 +11°C° 0 mm 4 mps 753 mmHg 58%
    13:00 +12°C° 0 mm 4 mps 753 mmHg 55%
    14:00 +11°C° 0 mm 4 mps 753 mmHg 59%
    15:00 +10°C° 0 mm 3 mps 753 mmHg 62%
    16:00 +9°C° 0 mm 3 mps 753 mmHg 66%
    17:00 +8°C° 0 mm 3 mps 754 mmHg 69%
    18:00 +7°C° 0 mm 3 mps 754 mmHg 71%
    19:00 +7°C° 0 mm 3 mps 754 mmHg 74%
    20:00 +5°C° 0 mm 3 mps 754 mmHg 75%
    21:00 +5°C° 0 mm 3 mps 755 mmHg 77%
    22:00 +4°C° 0 mm 3 mps 755 mmHg 79%
    23:00 +4°C° 0 mm 3 mps 755 mmHg 79%

    21 October, Saturday

    Time Temperature Precipitation Wind Pressure Humidity
    00:00 +4°C° 0 mm 3 mps 755 mmHg 79%
    01:00 +4°C° 0 mm 3 mps 755 mmHg 80%
    02:00 +4°C° 0 mm 3 mps 755 mmHg 81%
    03:00 +3°C° 0 mm 3 mps 754 mmHg 82%
    04:00 +3°C° 0 mm 3 mps 754 mmHg 84%
    05:00 +3°C° 0 mm 3 mps 754 mmHg 83%
    06:00 +3°C° 0 mm 3 mps 754 mmHg 83%
    07:00 +3°C° 0 mm 3 mps 754 mmHg 83%
    08:00 +4°C° 0 mm 4 mps 754 mmHg 77%
    09:00 +6°C° 0 mm 4 mps 754 mmHg 71%
    10:00 +7°C° 0 mm 4 mps 755 mmHg 66%
    11:00 +8°C° 0 mm 4 mps 754 mmHg 64%
    12:00 +10°C° 0 mm 4 mps 754 mmHg 62%
    13:00 +11°C° 0 mm 4 mps 754 mmHg 60%
    14:00 +10°C° 0 mm 4 mps 753 mmHg 62%
    15:00 +10°C° 0 mm 4 mps 753 mmHg 65%
    16:00 +9°C° 0 mm 3 mps 753 mmHg 68%
    17:00 +7°C° 0 mm 4 mps 753 mmHg 70%
    18:00 +7°C° 0 mm 4 mps 752 mmHg 72%
    19:00 +6°C° 0 mm 4 mps 752 mmHg 74%
    20:00 +6°C° 0 mm 4 mps 752 mmHg 75%
    21:00 +5°C° 0 mm 4 mps 752 mmHg 75%
    22:00 +5°C° 0 mm 4 mps 752 mmHg 76%
    23:00 +5°C° 0 mm 4 mps 752 mmHg 75%

    22 October, Sunday

    Time Temperature Precipitation Wind Pressure Humidity
    00:00 +5°C° 0 mm 4 mps 752 mmHg 75%
    01:00 +5°C° 0 mm 4 mps 751 mmHg 75%
    02:00 +5°C° 0 mm 4 mps 751 mmHg 74%
    03:00 +5°C° 0 mm 4 mps 751 mmHg 74%
    04:00 +5°C° 0 mm 4 mps 750 mmHg 74%
    05:00 +5°C° 0 mm 4 mps 750 mmHg 75%
    06:00 +5°C° 0 mm 4 mps 750 mmHg 77%
    07:00 +4°C° 0 mm 4 mps 749 mmHg 79%
    08:00 +6°C° 0 mm 4 mps 749 mmHg 75%
    09:00 +7°C° 0 mm 4 mps 749 mmHg 71%
    10:00 +8°C° 0 mm 4 mps 749 mmHg 67%
    11:00 +10°C° 0 mm 4 mps 748 mmHg 66%
    12:00 +11°C° 0 mm 4 mps 748 mmHg 65%
    13:00 +12°C° 0 mm 4 mps 748 mmHg 63%
    14:00 +11°C° 0 mm 3 mps 747 mmHg 67%
    15:00 +10°C° 0 mm 3 mps 747 mmHg 71%
    16:00 +10°C° 0 mm 2 mps 747 mmHg 75%
    17:00 +9°C° 0 mm 2 mps 747 mmHg 77%
    18:00 +9°C° 0 mm 2 mps 747 mmHg 80%
    19:00 +8°C° 0 mm 2 mps 747 mmHg 82%
    20:00 +8°C° 0 mm 2 mps 746 mmHg 82%
    21:00 +8°C° 0 mm 2 mps 746 mmHg 83%
    22:00 +8°C° 0 mm 2 mps 746 mmHg 83%
    23:00 +8°C° 0 mm 2 mps 746 mmHg 84%

    23 October, Monday

    Time Temperature Precipitation Wind Pressure Humidity
    00:00 +8°C° 0 mm 2 mps 746 mmHg 85%
    01:00 +9°C° 0 mm 1 mps 746 mmHg 87%
    02:00 +9°C° 0.1 mm 1 mps 746 mmHg 88%
    03:00 +9°C° 0.1 mm 1 mps 746 mmHg 89%
    04:00 +9°C° 0.1 mm 1 mps 746 mmHg 90%
    05:00 +9°C° 0.3 mm 1 mps 746 mmHg 90%
    06:00 +9°C° 0.3 mm 1 mps 746 mmHg 91%
    07:00 +9°C° 0.3 mm 1 mps 747 mmHg 92%
    08:00 +10°C° 0.1 mm 1 mps 747 mmHg 90%
    09:00 +10°C° 0.1 mm 1 mps 747 mmHg 89%
    10:00 +11°C° 0.1 mm 1 mps 748 mmHg 87%
    11:00 +11°C° 0.1 mm 1 mps 748 mmHg 88%
    12:00 +11°C° 0.1 mm 1 mps 748 mmHg 88%
    13:00 +10°C° 0.1 mm 2 mps 748 mmHg 89%
    14:00 +10°C° 0.1 mm 2 mps 748 mmHg 90%
    15:00 +10°C° 0.1 mm 2 mps 748 mmHg 90%
    16:00 +10°C° 0.1 mm 2 mps 749 mmHg 91%
    17:00 +9°C° 0.1 mm 2 mps 749 mmHg 92%
    18:00 +9°C° 0.1 mm 2 mps 749 mmHg 93%
    19:00 +9°C° 0.1 mm 2 mps 750 mmHg 94%
    20:00 +9°C° 0.1 mm 2 mps 750 mmHg 95%
    21:00 +9°C° 0.1 mm 2 mps 750 mmHg 95%
    22:00 +9°C° 0.1 mm 2 mps 751 mmHg 96%
    23:00 +9°C° 0.2 mm 2 mps 751 mmHg 96%
    Show more